Location: Domont
(49.0278°N, 2.3264°E)
Time: 01:58:57
(UTC+00:00)

Orbus 7S? - Pass Details

Date: 30 May 2022
Orbit: 340 x 6374 km, 56.9° (Epoch: 04 July)

Event Time Altitude Azimuth Distance (km) Brightness Sun altitude
Exits shadow 00:29:17 12° 229° (SW) 4,320 7.4 -18.6°
Maximum altitude 00:42:32 88° 142° (SE) 3,643 7.3 -18.2°
Drops below altitude 10° 01:18:27 10° 60° (ENE) 9,862 10.4 -16.4°
Sets 01:27:18 0° 62° (ENE) 11,059 10.8 -15.9°
